YV2005 SVVA-SVBM

Flight info

Callsign YV2005
Flight time 1h 7m
Altitude 10000
Route LAGO1 NOSCA/N0160F060 W14 BRM
Aircraft P28A/L-SDGRY/S

Departure

Time 2026-04-17 23:56
Airport Arturo Michelena International Airport (SVVA)

Arrival

Time 2026-04-18 01:03
Airport Jacinto Lara International Airport (SVBM)
Time Latitude Longitude Altitude Speed Heading
2026-04-17 23:34 10.15322 -67.92362 1407 ft 0 kts 271°
2026-04-17 23:46 10.15322 -67.92368 1407 ft 3 kts 264°
2026-04-17 23:46 10.15303 -67.92391 1408 ft 6 kts 188°
2026-04-17 23:47 10.15252 -67.92394 1410 ft 9 kts 182°
2026-04-17 23:47 10.15224 -67.92363 1407 ft 9 kts 91°
2026-04-17 23:47 10.15213 -67.92288 1410 ft 12 kts 126°
2026-04-17 23:47 10.15124 -67.92271 1406 ft 15 kts 183°
2026-04-17 23:48 10.15103 -67.92285 1406 ft 5 kts 290°
2026-04-17 23:48 10.15111 -67.92329 1407 ft 8 kts 269°
2026-04-17 23:48 10.15107 -67.92391 1407 ft 10 kts 261°
2026-04-17 23:48 10.15078 -67.92470 1408 ft 14 kts 244°
2026-04-17 23:49 10.15060 -67.92575 1408 ft 17 kts 271°
2026-04-17 23:49 10.15066 -67.92701 1409 ft 19 kts 273°
2026-04-17 23:49 10.15072 -67.92832 1410 ft 18 kts 274°
2026-04-17 23:49 10.15078 -67.92958 1411 ft 18 kts 272°
2026-04-17 23:50 10.15084 -67.93087 1412 ft 18 kts 273°
2026-04-17 23:50 10.15091 -67.93218 1412 ft 19 kts 273°
2026-04-17 23:50 10.15097 -67.93348 1414 ft 16 kts 272°
2026-04-17 23:50 10.15095 -67.93379 1414 ft 1 kts 274°
2026-04-17 23:51 10.15097 -67.93405 1414 ft 8 kts 275°
2026-04-17 23:51 10.15104 -67.93499 1415 ft 18 kts 274°
2026-04-17 23:51 10.15109 -67.93638 1415 ft 16 kts 259°
2026-04-17 23:51 10.15068 -67.93668 1415 ft 0 kts 181°
2026-04-17 23:54 10.15067 -67.93668 1415 ft 1 kts 180°
2026-04-17 23:54 10.15028 -67.93668 1415 ft 10 kts 171°
2026-04-17 23:54 10.15017 -67.93606 1415 ft 12 kts 94°
2026-04-17 23:54 10.15003 -67.93386 1415 ft 52 kts 93°
2026-04-17 23:55 10.14986 -67.92911 1452 ft 76 kts 90°
2026-04-17 23:55 10.14968 -67.92392 1569 ft 78 kts 88°
2026-04-17 23:55 10.14974 -67.91848 1708 ft 77 kts 88°
2026-04-17 23:55 10.14988 -67.91304 1845 ft 78 kts 88°
2026-04-17 23:56 10.15007 -67.90739 1976 ft 79 kts 88°
2026-04-17 23:56 10.15011 -67.90188 2127 ft 78 kts 88°
2026-04-17 23:56 10.15021 -67.89644 2262 ft 77 kts 88°
2026-04-17 23:56 10.15041 -67.89102 2383 ft 77 kts 86°
2026-04-17 23:57 10.15065 -67.88569 2516 ft 75 kts 86°
2026-04-17 23:57 10.15094 -67.88047 2629 ft 74 kts 89°
2026-04-17 23:57 10.15107 -67.87508 2695 ft 77 kts 82°
2026-04-17 23:57 10.15139 -67.86994 2837 ft 71 kts 87°
2026-04-17 23:58 10.15153 -67.86493 2943 ft 72 kts 86°
2026-04-17 23:58 10.15181 -67.85986 3056 ft 72 kts 84°
2026-04-17 23:58 10.15227 -67.85478 3175 ft 71 kts 82°
2026-04-17 23:58 10.15240 -67.84968 3244 ft 71 kts 88°
2026-04-17 23:59 10.15250 -67.84464 3352 ft 72 kts 89°
2026-04-17 23:59 10.15155 -67.83972 3421 ft 75 kts 124°
2026-04-17 23:59 10.14718 -67.83765 3544 ft 72 kts 178°
2026-04-17 23:59 10.14261 -67.83986 3650 ft 75 kts 225°
2026-04-18 00:00 10.14082 -67.84499 3752 ft 77 kts 255°
2026-04-18 00:00 10.13966 -67.85034 3854 ft 79 kts 258°
2026-04-18 00:00 10.13943 -67.85590 3946 ft 81 kts 268°
2026-04-18 00:00 10.13914 -67.86153 4046 ft 81 kts 263°
2026-04-18 00:01 10.13873 -67.86719 4145 ft 79 kts 257°
2026-04-18 00:01 10.13828 -67.87278 4231 ft 80 kts 264°
2026-04-18 00:01 10.13768 -67.87843 4325 ft 81 kts 258°
2026-04-18 00:01 10.13725 -67.88416 4421 ft 81 kts 259°
2026-04-18 00:02 10.13557 -67.88959 4514 ft 80 kts 242°
2026-04-18 00:02 10.13305 -67.89458 4611 ft 82 kts 241°
2026-04-18 00:02 10.13159 -67.90015 4704 ft 85 kts 266°
2026-04-18 00:02 10.13433 -67.90562 4809 ft 83 kts 304°
2026-04-18 00:03 10.13800 -67.91024 4865 ft 88 kts 313°
2026-04-18 00:03 10.14170 -67.91492 4966 ft 86 kts 300°
2026-04-18 00:03 10.14452 -67.92008 5048 ft 86 kts 304°
2026-04-18 00:03 10.14906 -67.92408 5201 ft 83 kts 322°
2026-04-18 00:04 10.15183 -67.92924 5251 ft 87 kts 271°
2026-04-18 00:04 10.14996 -67.93459 5336 ft 82 kts 230°
2026-04-18 00:04 10.14646 -67.93912 5403 ft 86 kts 226°
2026-04-18 00:04 10.14260 -67.94358 5525 ft 80 kts 218°
2026-04-18 00:05 10.13899 -67.94830 5559 ft 87 kts 236°
2026-04-18 00:05 10.13638 -67.95367 5644 ft 88 kts 238°
2026-04-18 00:05 10.13410 -67.95926 5744 ft 85 kts 242°
2026-04-18 00:05 10.13172 -67.96501 5785 ft 90 kts 244°
2026-04-18 00:06 10.12972 -67.97088 5867 ft 91 kts 248°
2026-04-18 00:06 10.12726 -67.97654 5968 ft 86 kts 236°
2026-04-18 00:06 10.12476 -67.98214 6035 ft 87 kts 245°
2026-04-18 00:06 10.12278 -67.98797 6104 ft 87 kts 243°
2026-04-18 00:07 10.12029 -67.99354 6163 ft 89 kts 245°
2026-04-18 00:07 10.11836 -67.99941 6226 ft 89 kts 246°
2026-04-18 00:07 10.11683 -68.00581 6231 ft 97 kts 250°
2026-04-18 00:07 10.11473 -68.01227 6300 ft 95 kts 245°
2026-04-18 00:08 10.11247 -68.01855 6371 ft 93 kts 244°
2026-04-18 00:08 10.11021 -68.02466 6439 ft 91 kts 245°
2026-04-18 00:08 10.10798 -68.03056 6498 ft 89 kts 244°
2026-04-18 00:08 10.10569 -68.03631 6559 ft 86 kts 243°
2026-04-18 00:09 10.10346 -68.04181 6625 ft 82 kts 242°
2026-04-18 00:09 10.10132 -68.04699 6663 ft 79 kts 242°
2026-04-18 00:09 10.09914 -68.05221 6695 ft 83 kts 242°
2026-04-18 00:09 10.09680 -68.05778 6739 ft 88 kts 242°
2026-04-18 00:10 10.09431 -68.06361 6797 ft 92 kts 243°
2026-04-18 00:10 10.09165 -68.06972 6844 ft 97 kts 243°
2026-04-18 00:10 10.08886 -68.07606 6899 ft 102 kts 243°
2026-04-18 00:10 10.08587 -68.08277 6955 ft 105 kts 244°
2026-04-18 00:11 10.08284 -68.08952 7040 ft 105 kts 243°
2026-04-18 00:11 10.08003 -68.09630 7130 ft 104 kts 246°
2026-04-18 00:11 10.07739 -68.10313 7221 ft 103 kts 248°
2026-04-18 00:11 10.07484 -68.10991 7307 ft 102 kts 247°
2026-04-18 00:12 10.07233 -68.11663 7403 ft 101 kts 247°
2026-04-18 00:12 10.06984 -68.12329 7493 ft 100 kts 248°
2026-04-18 00:12 10.06736 -68.12987 7577 ft 99 kts 247°
2026-04-18 00:12 10.06491 -68.13635 7674 ft 98 kts 247°
2026-04-18 00:13 10.06246 -68.14275 7761 ft 98 kts 247°
2026-04-18 00:13 10.06001 -68.14923 7821 ft 99 kts 247°
2026-04-18 00:13 10.05753 -68.15576 7899 ft 99 kts 248°
2026-04-18 00:13 10.05505 -68.16222 7963 ft 100 kts 248°
2026-04-18 00:14 10.05255 -68.16883 8035 ft 100 kts 248°
2026-04-18 00:14 10.05004 -68.17542 8106 ft 100 kts 247°
2026-04-18 00:14 10.04750 -68.18202 8175 ft 100 kts 248°
2026-04-18 00:14 10.04497 -68.18859 8254 ft 100 kts 248°
2026-04-18 00:15 10.04240 -68.19517 8327 ft 101 kts 247°
2026-04-18 00:15 10.03980 -68.20182 8407 ft 102 kts 248°
2026-04-18 00:15 10.03716 -68.20847 8477 ft 102 kts 248°
2026-04-18 00:15 10.03449 -68.21512 8551 ft 102 kts 248°
2026-04-18 00:16 10.03181 -68.22176 8617 ft 101 kts 248°
2026-04-18 00:16 10.02918 -68.22828 8680 ft 100 kts 248°
2026-04-18 00:16 10.02652 -68.23480 8749 ft 99 kts 248°
2026-04-18 00:16 10.02388 -68.24121 8815 ft 98 kts 247°
2026-04-18 00:17 10.02127 -68.24755 8892 ft 97 kts 248°
2026-04-18 00:17 10.01881 -68.25388 8961 ft 96 kts 258°
2026-04-18 00:17 10.01818 -68.26051 9039 ft 94 kts 267°
2026-04-18 00:17 10.01770 -68.26706 9116 ft 92 kts 268°
2026-04-18 00:18 10.01728 -68.27351 9195 ft 91 kts 267°
2026-04-18 00:18 10.01688 -68.27987 9272 ft 90 kts 268°
2026-04-18 00:18 10.01651 -68.28603 9343 ft 88 kts 268°
2026-04-18 00:18 10.01615 -68.29212 9415 ft 85 kts 268°
2026-04-18 00:19 10.01578 -68.29804 9492 ft 83 kts 268°
2026-04-18 00:19 10.01542 -68.30387 9538 ft 83 kts 268°
2026-04-18 00:19 10.01506 -68.30969 9596 ft 82 kts 268°
2026-04-18 00:19 10.01470 -68.31545 9646 ft 81 kts 268°
2026-04-18 00:20 10.01431 -68.32114 9696 ft 80 kts 269°
2026-04-18 00:20 10.01392 -68.32676 9748 ft 79 kts 267°
2026-04-18 00:20 10.01351 -68.33227 9801 ft 77 kts 268°
2026-04-18 00:20 10.01308 -68.33761 9843 ft 74 kts 267°
2026-04-18 00:21 10.01217 -68.34279 9808 ft 82 kts 262°
2026-04-18 00:21 10.01173 -68.34825 9869 ft 75 kts 262°
2026-04-18 00:21 10.01142 -68.35349 9712 ft 87 kts 299°
2026-04-18 00:21 10.01252 -68.35935 9705 ft 93 kts 266°
2026-04-18 00:22 10.01122 -68.36574 9790 ft 89 kts 256°
2026-04-18 00:22 10.01077 -68.37215 9795 ft 92 kts 272°
2026-04-18 00:22 10.01038 -68.37838 9862 ft 92 kts 268°
2026-04-18 00:22 10.00988 -68.38482 9920 ft 90 kts 266°
2026-04-18 00:23 10.00945 -68.39161 9883 ft 101 kts 268°
2026-04-18 00:23 10.00905 -68.39884 9893 ft 104 kts 269°
2026-04-18 00:23 10.00864 -68.40634 9895 ft 108 kts 269°
2026-04-18 00:23 10.00821 -68.41398 9898 ft 111 kts 270°
2026-04-18 00:24 10.00777 -68.42187 9893 ft 113 kts 270°
2026-04-18 00:24 10.00733 -68.42988 9890 ft 114 kts 270°
2026-04-18 00:24 10.00687 -68.43796 9886 ft 115 kts 270°
2026-04-18 00:24 10.00639 -68.44608 9882 ft 115 kts 270°
2026-04-18 00:25 10.00594 -68.45420 9884 ft 116 kts 270°
2026-04-18 00:25 10.00546 -68.46226 9879 ft 116 kts 269°
2026-04-18 00:25 10.00495 -68.47046 9886 ft 116 kts 269°
2026-04-18 00:25 10.00445 -68.47865 9879 ft 116 kts 269°
2026-04-18 00:26 10.00397 -68.48685 9883 ft 116 kts 269°
2026-04-18 00:26 10.00349 -68.49504 9881 ft 116 kts 269°
2026-04-18 00:26 10.00301 -68.50319 9870 ft 115 kts 269°
2026-04-18 00:26 10.00253 -68.51124 9869 ft 114 kts 269°
2026-04-18 00:27 10.00205 -68.51922 9867 ft 113 kts 268°
2026-04-18 00:27 10.00155 -68.52715 9870 ft 112 kts 269°
2026-04-18 00:27 10.00106 -68.53504 9868 ft 112 kts 268°
2026-04-18 00:27 10.00056 -68.54293 9873 ft 112 kts 268°
2026-04-18 00:28 10.00007 -68.55073 9874 ft 112 kts 268°
2026-04-18 00:28 9.99957 -68.55864 9874 ft 112 kts 268°
2026-04-18 00:28 9.99907 -68.56654 9873 ft 112 kts 268°
2026-04-18 00:28 9.99857 -68.57448 9880 ft 113 kts 268°
2026-04-18 00:29 9.99825 -68.57976 9874 ft 113 kts 268°
2026-04-18 00:29 9.99778 -68.58775 9884 ft 113 kts 268°
2026-04-18 00:29 9.99734 -68.59575 9886 ft 114 kts 268°
2026-04-18 00:29 9.99675 -68.60639 9890 ft 114 kts 268°
2026-04-18 00:30 9.99645 -68.61185 9892 ft 115 kts 268°
2026-04-18 00:30 9.99602 -68.61993 9885 ft 115 kts 269°
2026-04-18 00:30 9.99559 -68.62789 9880 ft 114 kts 268°
2026-04-18 00:30 9.99516 -68.63594 9875 ft 114 kts 268°
2026-04-18 00:31 9.99473 -68.64399 9874 ft 114 kts 268°
2026-04-18 00:31 9.99431 -68.65200 9874 ft 113 kts 268°
2026-04-18 00:31 9.99389 -68.65997 9874 ft 113 kts 268°
2026-04-18 00:31 9.99348 -68.66795 9875 ft 113 kts 268°
2026-04-18 00:32 9.99309 -68.67591 9872 ft 113 kts 268°
2026-04-18 00:32 9.99272 -68.68387 9876 ft 113 kts 268°
2026-04-18 00:32 9.99236 -68.69181 9874 ft 113 kts 269°
2026-04-18 00:32 9.99199 -68.69974 9876 ft 113 kts 269°
2026-04-18 00:33 9.99163 -68.70757 9874 ft 112 kts 269°
2026-04-18 00:33 9.99128 -68.71550 9872 ft 112 kts 269°
2026-04-18 00:33 9.99095 -68.72344 9870 ft 112 kts 268°
2026-04-18 00:33 9.99062 -68.73136 9867 ft 112 kts 269°
2026-04-18 00:34 9.99030 -68.73929 9872 ft 112 kts 269°
2026-04-18 00:34 9.98999 -68.74723 9871 ft 112 kts 269°
2026-04-18 00:34 9.98967 -68.75509 9873 ft 113 kts 269°
2026-04-18 00:34 9.98934 -68.76303 9873 ft 113 kts 269°
2026-04-18 00:35 9.98901 -68.77100 9875 ft 113 kts 269°
2026-04-18 00:35 9.98869 -68.77898 9876 ft 113 kts 269°
2026-04-18 00:35 9.98838 -68.78696 9875 ft 113 kts 269°
2026-04-18 00:35 9.98808 -68.79494 9876 ft 113 kts 269°
2026-04-18 00:36 9.98799 -68.80295 9873 ft 113 kts 274°
2026-04-18 00:36 9.98913 -68.81068 9870 ft 112 kts 284°
2026-04-18 00:36 9.99109 -68.81835 9869 ft 112 kts 286°
2026-04-18 00:36 9.99323 -68.82598 9864 ft 112 kts 287°
2026-04-18 00:37 9.99543 -68.83355 9866 ft 112 kts 288°
2026-04-18 00:37 9.99768 -68.84113 9868 ft 112 kts 288°
2026-04-18 00:37 9.99996 -68.84872 9876 ft 112 kts 288°
2026-04-18 00:37 10.00225 -68.85633 9871 ft 112 kts 288°
2026-04-18 00:38 10.00451 -68.86384 9871 ft 113 kts 288°
2026-04-18 00:38 10.00681 -68.87147 9870 ft 113 kts 288°
2026-04-18 00:38 10.00911 -68.87910 9868 ft 113 kts 288°
2026-04-18 00:38 10.00941 -68.88013 9869 ft 113 kts 288°
2026-04-18 00:39 10.01157 -68.88733 9868 ft 113 kts 288°
2026-04-18 00:39 10.01387 -68.89498 9873 ft 113 kts 288°
2026-04-18 00:39 10.01616 -68.90263 9872 ft 113 kts 288°
2026-04-18 00:39 10.01844 -68.91029 9872 ft 113 kts 288°
2026-04-18 00:40 10.02070 -68.91785 9873 ft 113 kts 288°
2026-04-18 00:40 10.02297 -68.92551 9877 ft 113 kts 288°
2026-04-18 00:40 10.02525 -68.93318 9872 ft 113 kts 288°
2026-04-18 00:40 10.02751 -68.94084 9874 ft 113 kts 288°
2026-04-18 00:41 10.02978 -68.94852 9875 ft 113 kts 288°
2026-04-18 00:41 10.03205 -68.95619 9872 ft 113 kts 288°
2026-04-18 00:41 10.03428 -68.96374 9870 ft 113 kts 288°
2026-04-18 00:41 10.03656 -68.97139 9870 ft 113 kts 288°
2026-04-18 00:42 10.03886 -68.97903 9874 ft 113 kts 288°
2026-04-18 00:42 10.04116 -68.98667 9872 ft 113 kts 288°
2026-04-18 00:42 10.04347 -68.99431 9872 ft 113 kts 288°
2026-04-18 00:42 10.04577 -69.00193 9873 ft 113 kts 288°
2026-04-18 00:43 10.04806 -69.00956 9873 ft 113 kts 288°
2026-04-18 00:43 10.04863 -69.01754 9870 ft 113 kts 272°
2026-04-18 00:43 10.04876 -69.02555 9872 ft 113 kts 272°
2026-04-18 00:43 10.04895 -69.03357 9875 ft 113 kts 272°
2026-04-18 00:44 10.04915 -69.04149 9875 ft 113 kts 272°
2026-04-18 00:44 10.04935 -69.04948 9878 ft 113 kts 272°
2026-04-18 00:44 10.04956 -69.05748 9880 ft 114 kts 272°
2026-04-18 00:44 10.04946 -69.06551 9878 ft 114 kts 269°
2026-04-18 00:45 10.04911 -69.07352 9878 ft 114 kts 268°
2026-04-18 00:45 10.04869 -69.08154 9878 ft 114 kts 267°
2026-04-18 00:45 10.04825 -69.08958 9866 ft 115 kts 267°
2026-04-18 00:45 10.04778 -69.09798 9769 ft 122 kts 268°
2026-04-18 00:46 10.04730 -69.10650 9665 ft 120 kts 267°
2026-04-18 00:46 10.04680 -69.11502 9564 ft 121 kts 267°
2026-04-18 00:46 10.04631 -69.12343 9463 ft 121 kts 267°
2026-04-18 00:46 10.04582 -69.13196 9361 ft 121 kts 267°
2026-04-18 00:47 10.04533 -69.14050 9246 ft 122 kts 266°
2026-04-18 00:47 10.04456 -69.14915 9137 ft 122 kts 265°
2026-04-18 00:47 10.04418 -69.15770 9047 ft 121 kts 270°
2026-04-18 00:47 10.04445 -69.16631 8944 ft 123 kts 273°
2026-04-18 00:48 10.04494 -69.17507 8822 ft 126 kts 274°
2026-04-18 00:48 10.04553 -69.18397 8697 ft 127 kts 274°
2026-04-18 00:48 10.04616 -69.19295 8575 ft 128 kts 274°
2026-04-18 00:49 10.04673 -69.21110 8306 ft 130 kts 269°
2026-04-18 00:49 10.04661 -69.22038 8134 ft 133 kts 269°
2026-04-18 00:49 10.04642 -69.22978 7966 ft 134 kts 268°
2026-04-18 00:49 10.04622 -69.23923 7797 ft 134 kts 268°
2026-04-18 00:50 10.04602 -69.24859 7631 ft 134 kts 268°
2026-04-18 00:50 10.04584 -69.25807 7466 ft 134 kts 268°
2026-04-18 00:50 10.04568 -69.26755 7300 ft 134 kts 268°
2026-04-18 00:50 10.04553 -69.27705 7136 ft 134 kts 268°
2026-04-18 00:51 10.04539 -69.28656 6975 ft 134 kts 268°
2026-04-18 00:51 10.04530 -69.29571 6954 ft 125 kts 268°
2026-04-18 00:51 10.04515 -69.30417 6951 ft 118 kts 267°
2026-04-18 00:51 10.04490 -69.31235 6949 ft 114 kts 266°
2026-04-18 00:52 10.04465 -69.32028 6946 ft 111 kts 266°
2026-04-18 00:52 10.04435 -69.32807 6950 ft 110 kts 265°
2026-04-18 00:52 10.04374 -69.33574 6947 ft 109 kts 263°
2026-04-18 00:52 10.04338 -69.34348 6945 ft 109 kts 268°
2026-04-18 00:53 10.04334 -69.35119 6941 ft 109 kts 266°
2026-04-18 00:53 10.04246 -69.35874 6933 ft 108 kts 260°
2026-04-18 00:53 10.04147 -69.36637 6870 ft 112 kts 262°
2026-04-18 00:53 10.04051 -69.37468 6708 ft 116 kts 262°
2026-04-18 00:54 10.03939 -69.38271 6588 ft 116 kts 259°
2026-04-18 00:54 10.03795 -69.39080 6465 ft 116 kts 257°
2026-04-18 00:54 10.03611 -69.39876 6334 ft 116 kts 255°
2026-04-18 00:54 10.03413 -69.40670 6214 ft 116 kts 256°
2026-04-18 00:55 10.03287 -69.41477 6075 ft 116 kts 261°
2026-04-18 00:55 10.03197 -69.42296 5950 ft 117 kts 259°
2026-04-18 00:55 10.03063 -69.43103 5843 ft 115 kts 259°
2026-04-18 00:55 10.03099 -69.43911 5716 ft 118 kts 282°
2026-04-18 00:56 10.03500 -69.44642 5578 ft 119 kts 306°
2026-04-18 00:56 10.04027 -69.45287 5463 ft 120 kts 308°
2026-04-18 00:56 10.04568 -69.45944 5344 ft 121 kts 308°
2026-04-18 00:56 10.05103 -69.46594 5250 ft 120 kts 307°
2026-04-18 00:57 10.05591 -69.47284 5127 ft 120 kts 299°
2026-04-18 00:57 10.05801 -69.48081 4995 ft 116 kts 262°
2026-04-18 00:57 10.05504 -69.48804 4925 ft 109 kts 231°
2026-04-18 00:57 10.04897 -69.49237 4820 ft 107 kts 196°
2026-04-18 00:58 10.04177 -69.49219 4781 ft 105 kts 159°
2026-04-18 00:58 10.03641 -69.48748 4722 ft 105 kts 126°
2026-04-18 00:58 10.03239 -69.48125 4635 ft 107 kts 127°
2026-04-18 00:58 10.02853 -69.47483 4561 ft 106 kts 117°
2026-04-18 00:59 10.02631 -69.46745 4413 ft 112 kts 108°
2026-04-18 00:59 10.02533 -69.45969 4255 ft 112 kts 91°
2026-04-18 00:59 10.02626 -69.45183 4101 ft 112 kts 84°
2026-04-18 00:59 10.02760 -69.44410 3958 ft 111 kts 85°
2026-04-18 01:00 10.02914 -69.43663 3791 ft 104 kts 79°
2026-04-18 01:00 10.03022 -69.42961 3640 ft 97 kts 85°
2026-04-18 01:00 10.03158 -69.42307 3511 ft 93 kts 82°
2026-04-18 01:00 10.03244 -69.41651 3366 ft 94 kts 84°
2026-04-18 01:01 10.03329 -69.41024 3236 ft 85 kts 78°
2026-04-18 01:01 10.03462 -69.40460 3034 ft 80 kts 81°
2026-04-18 01:01 10.03570 -69.39905 2908 ft 79 kts 77°
2026-04-18 01:01 10.03691 -69.39359 2731 ft 82 kts 78°
2026-04-18 01:02 10.03802 -69.38804 2530 ft 80 kts 80°
2026-04-18 01:02 10.03888 -69.38252 2366 ft 79 kts 82°
2026-04-18 01:02 10.03978 -69.37718 2206 ft 74 kts 81°
2026-04-18 01:02 10.04053 -69.37213 2094 ft 71 kts 83°
2026-04-18 01:03 10.04119 -69.36759 2046 ft 56 kts 83°
2026-04-18 01:03 10.04170 -69.36425 2042 ft 41 kts 81°
2026-04-18 01:03 10.04203 -69.36204 2043 ft 24 kts 79°
2026-04-18 01:03 10.04228 -69.36053 2040 ft 20 kts 81°
2026-04-18 01:04 10.04250 -69.35913 2042 ft 21 kts 81°
2026-04-18 01:04 10.04274 -69.35756 2037 ft 24 kts 81°
2026-04-18 01:04 10.04301 -69.35579 2035 ft 27 kts 81°
2026-04-18 01:04 10.04353 -69.35433 2035 ft 18 kts 356°
2026-04-18 01:05 10.04467 -69.35449 2041 ft 15 kts 348°
2026-04-18 01:05 10.04483 -69.35544 2042 ft 16 kts 263°
2026-04-18 01:05 10.04464 -69.35661 2042 ft 18 kts 262°
2026-04-18 01:05 10.04518 -69.35737 2042 ft 18 kts 352°
2026-04-18 01:06 10.04585 -69.35777 2042 ft 5 kts 268°
2026-04-18 01:06 10.04571 -69.35788 2045 ft 0 kts 171°